EW1714 Weather Reports


Display with metric or nautical units.
time (UTC)temp
F
wind
direction
speed
MPH
gust
MPH
rain 1hr
in
rain 24hr
in
rain mn
in
humidity
%
barometer
mb
20260504023010 39 360 0.0 0.0 0.00 0.00 0.00 75 1010.3
20260504022505 40 360 0.0 0.0 0.00 0.00 0.00 75 1010.3
20260504022004 40 360 0.0 0.0 0.00 0.00 0.00 75 1010.3
20260504021513 40 360 0.0 0.0 0.00 0.00 0.00 75 1010.3
20260504021004 40 360 0.0 0.0 0.00 0.00 0.00 74 1010.2
20260504020506 40 360 0.0 0.0 0.00 0.00 0.00 73 1010.1
20260504020020 41 360 0.0 0.0 0.00 0.00 0.00 72 1010.1
20260504015508 41 360 0.0 0.0 0.00 0.00 0.00 72 1010.0
20260504015010 41 360 0.0 0.0 0.00 0.00 0.00 71 1010.0
20260504014504 42 360 0.0 0.0 0.00 0.00 0.00 70 1010.0
20260504014004 42 360 0.0 0.0 0.00 0.00 0.00 70 1009.9
20260504013503 43 360 0.0 0.0 0.00 0.00 0.00 69 1009.9
20260504013005 43 360 0.0 0.0 0.00 0.00 0.00 68 1009.9
20260504012503 43 360 0.0 0.0 0.00 0.00 0.00 68 1009.8
20260504012005 43 360 0.0 0.0 0.00 0.00 0.00 66 1009.8
20260504011512 44 360 0.0 0.0 0.00 0.00 0.00 66 1009.8
20260504011003 44 360 0.0 0.0 0.00 0.00 0.00 66 1009.7
20260504010508 44 360 0.0 0.0 0.00 0.00 0.00 64 1009.7
20260504010015 44 360 0.0 0.0 0.00 0.00 0.00 63 1009.6
20260504005507 45 360 0.0 0.0 0.00 0.00 0.00 62 1009.6
20260504005005 45 360 0.0 0.0 0.00 0.00 0.00 63 1009.5
20260504004522 45 360 0.0 0.0 0.00 0.00 0.00 60 1009.4
20260504004008 46 360 0.0 0.0 0.00 0.00 0.00 59 1009.3
20260504003511 46 360 0.0 0.0 0.00 0.00 0.00 58 1009.3
20260504003029 47 360 0.0 0.0 0.00 0.00 0.00 58 1009.3
20260504002503 47 360 0.0 0.0 0.00 0.00 0.00 56 1009.2
20260504002007 48 360 0.0 0.0 0.00 0.00 0.00 55 1009.1
20260504001509 48 360 0.0 0.0 0.00 0.00 0.00 54 1009.0
20260504001004 49 360 0.0 0.0 0.00 0.00 0.00 52 1009.0
20260504000505 49 360 0.0 0.0 0.00 0.00 0.00 51 1009.0
20260504000014 50 360 0.0 0.0 0.00 0.00 0.00 50 1009.0
20260503235505 50 360 0.0 0.0 0.00 0.00 0.00 49 1008.9
20260503235005 50 360 0.0 0.0 0.00 0.00 0.00 47 1008.9
20260503234518 51 360 0.0 0.0 0.00 0.00 0.00 47 1008.8
20260503234005 51 360 0.0 0.0 0.00 0.00 0.00 48 1008.7
20260503233505 51 360 0.0 0.0 0.00 0.00 0.00 46 1008.7
20260503233033 51 360 0.0 0.0 0.00 0.00 0.00 45 1008.7
20260503232507 51 1 0.0 0.0 0.00 0.00 0.00 45 1008.6
20260503232008 52 1 0.0 8.0 0.00 0.00 0.00 45 1008.6
20260503231523 52 359 2.0 8.0 0.00 0.00 0.00 44 1008.5
20260503231011 52 238 0.0 10.0 0.00 0.00 0.00 44 1008.5
20260503230503 52 359 0.0 10.0 0.00 0.00 0.00 44 1008.4
20260503230011 52 335 3.0 8.0 0.00 0.00 0.00 43 1008.4
20260503225504 52 248 0.0 9.0 0.00 0.00 0.00 43 1008.3
20260503225004 52 332 2.0 15.0 0.00 0.00 0.00 44 1008.2
20260503224512 52 338 4.0 15.0 0.00 0.00 0.00 43 1008.2
20260503224005 53 265 1.0 10.0 0.00 0.00 0.00 42 1008.1
20260503223511 53 209 2.0 10.0 0.00 0.00 0.00 42 1008.1
20260503223018 53 289 1.0 11.0 0.00 0.00 0.00 42 1008.1
20260503222505 53 240 0.0 11.0 0.00 0.00 0.00 42 1008.0
20260503222008 53 246 1.0 9.0 0.00 0.00 0.00 42 1007.9
20260503221529 53 245 3.0 9.0 0.00 0.00 0.00 43 1007.8
20260503221010 53 359 2.0 8.0 0.00 0.00 0.00 43 1007.8
20260503220508 53 358 0.0 11.0 0.00 0.00 0.00 44 1007.8
20260503220028 53 319 1.0 11.0 0.00 0.00 0.00 42 1007.7
20260503215510 53 63 2.0 8.0 0.00 0.00 0.00 43 1007.7
20260503215003 53 281 1.0 6.0 0.00 0.00 0.00 42 1007.7
20260503214512 53 335 1.0 9.0 0.00 0.01 0.00 42 1007.6
20260503214004 53 338 0.0 9.0 0.00 0.01 0.00 42 1007.5
20260503213505 53 334 0.0 10.0 0.00 0.01 0.00 43 1007.5
20260503213017 53 288 0.0 11.0 0.00 0.01 0.00 42 1007.5
20260503212507 53 113 0.0 11.0 0.00 0.01 0.00 42 1007.5
20260503212007 53 196 2.0 11.0 0.00 0.01 0.00 42 1007.5
20260503211519 53 245 1.0 11.0 0.00 0.02 0.00 43 1007.4
20260503211010 53 100 1.0 11.0 0.00 0.02 0.00 43 1007.3
20260503210508 53 20 3.0 17.0 0.00 0.03 0.00 42 1007.3
20260503210023 53 20 6.0 17.0 0.00 0.04 0.00 43 1007.2
20260503205507 53 266 3.0 11.0 0.00 0.04 0.00 42 1007.1
20260503205008 54 337 2.0 9.0 0.00 0.05 0.00 44 1007.1
20260503204526 54 4 2.0 14.0 0.00 0.05 0.00 43 1007.1
20260503204010 54 280 1.0 14.0 0.00 0.06 0.00 43 1007.0
20260503203514 54 251 2.0 9.0 0.00 0.06 0.00 43 1006.9
20260503203016 54 334 1.0 12.0 0.00 0.06 0.00 41 1006.8
20260503202505 55 220 1.0 12.0 0.00 0.06 0.00 41 1006.8
20260503202006 55 269 1.0 11.0 0.00 0.06 0.00 40 1006.6
20260503201518 55 238 0.0 8.0 0.00 0.07 0.00 42 1006.5
20260503201007 55 1 1.0 8.0 0.00 0.07 0.00 41 1006.5
20260503200512 55 191 0.0 14.0 0.00 0.07 0.00 39 1006.5
20260503200024 55 271 6.0 14.0 0.00 0.07 0.00 41 1006.7
20260503195511 55 360 1.0 10.0 0.00 0.07 0.00 43 1006.7
20260503195013 55 1 2.0 10.0 0.00 0.07 0.00 43 1006.6
20260503194525 55 1 2.0 10.0 0.00 0.07 0.00 43 1006.7
20260503194008 55 5 0.0 7.0 0.00 0.07 0.00 44 1006.7
20260503193509 55 325 0.0 10.0 0.00 0.07 0.00 48 1006.6
20260503193030 54 10 0.0 10.0 0.00 0.07 0.00 47 1006.6
20260503192508 54 137 0.0 8.0 0.00 0.07 0.00 45 1006.7
20260503192014 53 248 1.0 8.0 0.00 0.07 0.00 43 1006.6
20260503191533 54 277 0.0 13.0 0.00 0.07 0.00 45 1006.7
20260503191006 54 222 1.0 13.0 0.00 0.07 0.00 44 1006.7
20260503190505 54 360 3.0 13.0 0.00 0.07 0.00 44 1006.6
20260503190019 54 335 3.0 14.0 0.00 0.07 0.00 44 1006.7
20260503185508 54 18 5.0 14.0 0.00 0.07 0.00 46 1006.7
20260503185008 55 359 1.0 8.0 0.00 0.07 0.00 46 1006.6
20260503184524 55 206 1.0 7.0 0.00 0.07 0.00 45 1006.6
20260503184014 55 324 0.0 8.0 0.00 0.07 0.00 47 1006.6
20260503183510 55 323 0.0 9.0 0.00 0.07 0.00 48 1006.6
20260503183028 55 6 0.0 12.0 0.00 0.07 0.00 47 1006.6
20260503182509 55 359 3.0 12.0 0.00 0.07 0.00 48 1006.6
20260503182012 55 338 2.0 10.0 0.00 0.07 0.00 49 1006.7
20260503181527 55 323 3.0 11.0 0.00 0.07 0.00 50 1006.7
20260503181009 54 122 3.0 13.0 0.00 0.07 0.00 52 1006.7
20260503180509 54 360 4.0 13.0 0.00 0.07 0.00 51 1006.8
20260503180029 54 58 2.0 12.0 0.00 0.07 0.00 51 1006.8
20260503175504 54 19 4.0 13.0 0.00 0.07 0.00 52 1006.7
20260503175006 54 345 1.0 13.0 0.00 0.07 0.00 50 1006.9
20260503174520 54 325 2.0 11.0 0.00 0.07 0.00 52 1006.8
20260503174008 53 332 3.0 11.0 0.00 0.07 0.00 55 1006.8
20260503173503 53 258 1.0 11.0 0.00 0.07 0.00 54 1006.7
20260503173004 53 330 3.0 11.0 0.00 0.07 0.00 54 1006.8
20260503172504 52 170 1.0 11.0 0.00 0.07 0.00 56 1006.8
20260503172004 52 261 1.0 11.0 0.00 0.07 0.00 58 1006.9
20260503171507 52 360 0.0 10.0 0.00 0.07 0.00 57 1006.9
20260503171002 52 161 0.0 8.0 0.00 0.07 0.00 58 1006.9
20260503170503 52 337 2.0 11.0 0.00 0.07 0.00 59 1006.9
20260503151006 47 349 4.0 12.0 0.00 0.07 0.00 75 1007.2
20260503150508 47 315 3.0 11.0 0.00 0.07 0.00 74 1007.1
20260503131005 44 355 0.0 5.0 0.00 0.07 0.00 87 1007.4
20260503130505 44 65 0.0 10.0 0.00 0.07 0.00 87 1007.5
20260503110504 42 359 0.0 4.0 0.00 0.15 0.00 90 1007.9
20260503090509 42 356 0.0 0.0 0.00 0.16 0.00 91 1008.1
20260503081522 43 359 0.0 0.0 0.00 0.16 0.00 91 1008.6
20260503081012 43 359 0.0 0.0 0.00 0.16 0.00 91 1008.7
20260503080502 43 359 0.0 0.0 0.00 0.16 0.00 92 1008.8
20260503072507 44 356 0.0 0.0 0.00 0.16 0.00 93 1008.9
20260503072007 44 344 0.0 0.0 0.00 0.16 0.00 93 1009.0
20260503071521 44 344 0.0 0.0 0.00 0.16 0.00 93 1009.1
20260503071008 44 344 0.0 0.0 0.00 0.16 0.00 93 1009.2
20260503070507 44 344 0.0 0.0 0.00 0.16 0.00 93 1009.1
20260503055008 44 344 0.0 0.0 0.00 0.16 0.00 93 1010.0
20260503054534 44 344 0.0 0.0 0.00 0.16 0.00 93 1010.0
20260503054010 44 344 0.0 0.0 0.00 0.16 0.00 93 1010.0
20260503053510 44 344 0.0 0.0 0.00 0.16 0.00 93 1010.0
20260503053025 44 344 0.0 0.0 0.00 0.16 0.00 93 1010.1
20260503052502 45 344 0.0 0.0 0.00 0.16 0.00 93 1010.2
20260503052010 45 344 0.0 0.0 0.00 0.16 0.00 93 1010.2
20260503051517 45 344 0.0 0.0 0.00 0.16 0.00 93 1010.3
20260503051008 45 344 0.0 0.0 0.00 0.16 0.00 93 1010.4
20260503050509 45 344 0.0 0.0 0.00 0.16 0.00 93 1010.5
20260503050034 45 344 0.0 0.0 0.00 0.16 0.00 93 1010.6
20260503045509 45 344 0.0 0.0 0.00 0.16 0.00 93 1010.6
20260503045011 45 344 0.0 0.0 0.00 0.16 0.00 93 1010.6
20260503044525 45 344 0.0 0.0 0.00 0.16 0.00 93 1010.7
20260503044009 45 344 0.0 1.0 0.00 0.16 0.00 93 1010.8
20260503043508 45 344 0.0 1.0 0.00 0.16 0.00 93 1010.8
20260503043030 45 329 0.0 0.0 0.00 0.16 0.00 93 1010.7
20260503042510 45 329 0.0 0.0 0.00 0.16 0.00 93 1010.9
20260503042010 45 329 0.0 0.0 0.00 0.16 0.00 92 1011.1
20260503041537 45 329 0.0 0.0 0.00 0.16 0.00 92 1011.1
20260503041005 46 329 0.0 0.0 0.00 0.16 0.00 93 1011.0
20260503040505 46 329 0.0 0.0 0.00 0.16 0.00 93 1011.0
20260503040019 46 329 0.0 0.0 0.00 0.16 0.00 93 1011.1
20260503035507 46 329 0.0 0.0 0.00 0.16 0.16 93 1011.1
20260503035006 46 329 0.0 0.0 0.00 0.16 0.16 94 1011.1
20260503034522 46 329 0.0 0.0 0.00 0.16 0.16 94 1011.0
20260503034007 46 329 0.0 0.0 0.00 0.16 0.16 94 1011.1
20260503033508 46 329 0.0 0.0 0.00 0.16 0.16 94 1011.1
20260503033028 46 329 0.0 0.0 0.00 0.16 0.16 94 1011.2
20260503032511 46 329 0.0 0.0 0.00 0.16 0.16 94 1011.1
20260503032007 46 329 0.0 0.0 0.00 0.16 0.16 94 1011.1
20260503031526 46 329 0.0 0.0 0.00 0.16 0.16 94 1011.0
20260503031010 46 329 0.0 0.0 0.00 0.16 0.16 94 1011.0
20260503030507 46 329 0.0 0.0 0.00 0.16 0.16 93 1011.0
20260503030033 46 329 0.0 0.0 0.00 0.16 0.16 93 1011.0
20260503025508 46 329 0.0 0.0 0.00 0.16 0.16 93 1010.9
20260503025007 46 329 0.0 0.0 0.00 0.16 0.16 93 1011.1
20260503024517 47 329 0.0 0.0 0.00 0.16 0.16 93 1011.1
20260503024006 47 329 0.0 0.0 0.00 0.16 0.16 93 1011.0
20260503023506 47 329 0.0 0.0 0.00 0.16 0.16 93 1011.2